Find Starlink 5412

NORAD ID: 54806 Int'l Des: 2022-175 Owner: SPXS Country: US Constellation: starlink operational
LEOCIRCULAR

リアルタイム位置

3D地球を読み込み中...

Starlink 5412について

説明を読み込み中...

次回通過

Passes for default location (London). Set your location on the main map for personalized predictions.

高度履歴

Loading altitude history...

軌道要素

1 54806U 22175BA 26127.23498396 -.00000049 00000-0 14991-4 0 9994
2 54806 53.2165 125.8919 0001094 76.6066 283.5048 15.08834186188974
Epoch: May 7, 2026 • Age: 6 hours

現在のステータス

高度 550.4 km
速度 7.59 km/s
衛星直下点 -32.31°S, 63.26°W
打ち上げ日 Dec 17, 2022
運用期間 3.3 years
タイプ internet

技術仕様

分類 Payload
質量 305.00 kg
乾燥質量 290.00 kg
総質量 305.00 kg
長さ 0.20 m
直径 2.80 m
スパン 9.00 m
形状 Box + pan
製造者 SPXS
バスタイプ Starlink
フェーズステータス In Orbit
所有者/国 SPXS/US

Most Searched